Home   Weather   Bad Oldesloe   Past weeks

Flag for Germany Past Weather in Bad Oldesloe, Schleswig-Holstein, Germany — Yesterday and Last 2 Weeks

Now
37 °F

Partly sunny.


Feels Like: 34 °F
Forecast: 33 / 39 °F
Wind: 5 mph from Southwest

Location: Luebeck-Blankensee

Current Time: Dec 5, 2016 at 3:51:43 pm

Latest Report: Dec 5, 2016 at 2:50 pm


Visibility: N/A

Pressure: 30.30 "Hg

Humidity: 81%

Dew Point: 32 °F

Location of Bad OldesloeLocation

Past Weather in Bad Oldesloe — Graph

°F

Bad Oldesloe Temperature Yesterday

Maximum temperature yesterday: 37 °F (at 12:20 pm)
Minimum temperature yesterday: 32 °F (at 6:50 am)
Average temperature yesterday: 35 °F

High & Low Weather Summary for the Past Weeks

 TemperatureHumidityPressure
High55 °F (Nov 21, 12:20 pm)100% (Nov 23, 6:50 am)30.54 "Hg (Nov 23, 6:50 am)
Low23 °F (Nov 29, 6:20 am)52% (Nov 28, 2:50 pm)29.36 "Hg (Nov 20, 3:50 pm)
Average40 °F85%30.15 "Hg
* Reported Nov 20 2:20 pm — Dec 5 2:20 pm, Bad Oldesloe, Weather by CustomWeather, © 2016

Note: Actual official high and low records may vary slightly from our data, if they occured in-between our weather recording intervals... More about our weather records

Advertising

Bad Oldesloe Weather History for the Previous 24 Hours

Scroll right to see more
 ConditionsComfort  
Time TempWeatherWind HumidityBarometerVisibility
2:20 pm
Mon, Dec 5
37 °FScattered clouds.5 mph81%30.30 "HgN/A
1:50 pm39 °FSunny.5 mph70%30.30 "Hg10 mi
1:20 pm37 °FSunny.5 mph75%30.30 "Hg10 mi
12:50 pm37 °FPassing clouds.5 mph75%30.30 "HgN/A
12:20 pm36 °FSunny.5 mph81%30.30 "Hg10 mi
11:50 am34 °FSunny.3 mph87%30.33 "Hg10 mi
11:20 am32 °FSunny.3 mph87%30.33 "Hg10 mi
10:50 am30 °FClear.3 mph93%30.33 "Hg6 mi
10:20 am30 °FClear.2 mph93%30.33 "Hg6 mi
9:50 am28 °FClear.2 mph100%30.33 "Hg6 mi
9:20 am25 °FClear.1 mph93%30.33 "Hg6 mi
8:50 am23 °FFog.1 mph100%30.33 "Hg6 mi
8:20 am25 °FFog.1 mph93%30.33 "Hg6 mi
7:50 am25 °FFog.1 mph100%30.33 "HgN/A
7:20 am25 °FFog.2 mph100%30.33 "HgN/A
6:50 am23 °FFog.1 mph100%30.33 "HgN/A
6:20 pm
Sun, Dec 4
36 °FPassing clouds.1 mph93%30.42 "HgN/A
5:50 pm36 °FPassing clouds.2 mph93%30.42 "HgN/A
5:20 pm36 °FPassing clouds.2 mph93%30.42 "HgN/A
4:50 pm36 °FPassing clouds.3 mph93%30.42 "HgN/A
4:20 pm36 °FPassing clouds.3 mph93%30.39 "HgN/A
3:50 pm36 °FPartly sunny.3 mph93%30.39 "HgN/A
3:20 pm37 °FPartly sunny.5 mph87%30.39 "HgN/A
Weather by CustomWeather, © 2016

See weather overviewHow to use our weather pages